Regional Weather Roundup
Issued by NWS Sterling, VA

Home | Current Version | Previous Version | Graphics & Text | Print | Product List | Glossary On
Versions: 1 2 3 4 5 6 7 8 9 10 11 12 13 14 15 16 17 18 19 20 21 22 23 24 25 26 27 28 29 30 31 32 33 34 35 36 37 38 39 40 41 42 43 44 45 46 47 48 49 50
000
ASUS41 KLWX 040010
RWRLWX

REGIONAL WEATHER ROUNDUP
NATIONAL WEATHER SERVICE BALTIMORE MD/WASHINGTON DC
800 PM EDT THU SEP 03 2015

Note: "FAIR" indicates few or no clouds below 12,000 feet
with no significant weather and/or obstructions to visibility.
 TC=TEMPERATURE CELSIUS

 * =Non NWS site. Station does not report precipitation (e.g. rain,
    snow, etc.), thunder, or fog.

DCZ001-MDZ009-015-VAZ040>042-051-053>054-040100-
WASHINGTON METRO

CITY           SKY/WX    TMP DP  RH WIND       PRES   REMARKS
WASHINGTON NAT MOCLDY    81  71  71 E3        29.87R
DULLES         MOCLDY    83  70  64 NW7       29.88R
ANDREWS AFB    MOCLDY    77  70  78 CALM      29.87R
FT BELVOIR     MOCLDY    80  69  69 VRB1      29.86S
QUANTICO       MOCLDY    84  71  65 CALM      29.87R
COLLEGE PARK*  MOCLDY    82  68  61 CALM      29.86S
LEESBURG*      MOCLDY    82  72  69 W3        29.90R
MANASSAS*      CLEAR     79  73  83 CALM      29.87R
GAITHERSBURG*  MOCLDY    81  66  61 CALM      29.93R

$$

MDZ006>007-011-014-040100-
BALTIMORE METRO

CITY           SKY/WX    TMP DP  RH WIND       PRES   REMARKS
BWI AIRPORT    MOCLDY    83  70  64 CALM      29.86R
MD SCIENCE CTR   N/A     88  70  55 MISG      29.86R HX  93
MARTIN STATE   PTCLDY    82  75  78 CALM      29.87R
ANNAPOLIS      PTCLDY    82  74  76 CALM      29.86R
FORT MEADE*    PTCLDY    72  70  94 CALM      29.89R

$$

MDZ012-015-019>023-040100-
MARYLAND EASTERN SHORE

CITY           SKY/WX    TMP DP  RH WIND       PRES   REMARKS
OCEAN CITY     PTCLDY    81  71  71 CALM      29.85R
SALISBURY      MOCLDY    79  74  84 CALM      29.85R
BAY BRIDGE AP*   N/A     81  70  69 CALM      29.86R

$$

MDZ017>025-040100-
SOUTHERN MARYLAND

CITY           SKY/WX    TMP DP  RH WIND       PRES   REMARKS
PATUXENT RIVER MOCLDY    77  72  84 CALM      29.86R
ST INIGOES     CLEAR     77  74  90 CALM      29.85R
LEONARDTOWN*   NOT AVBL

$$

MDZ003>005-040100-
NORTH CENTRAL MARYLAND

CITY           SKY/WX    TMP DP  RH WIND       PRES   REMARKS
FREDERICK*     CLEAR     82  73  74 CALM      29.90R
HAGERSTOWN APT MOCLDY    83  67  58 CALM      29.90R
WESTMINSTER*   PTCLDY    82  72  69 CALM      29.91R

$$

MDZ501>502-040100-
WESTERN MARYLAND

CITY           SKY/WX    TMP DP  RH WIND       PRES   REMARKS
OAKLAND*       MOCLDY    68  63  83 W6        30.06F
CUMBERLAND*    MOCLDY    81  70  69 CALM      29.96S

$$

VAZ025>031-040100-
SHENANDOAH VALLEY

CITY           SKY/WX    TMP DP  RH WIND       PRES   REMARKS
WINCHESTER*    CLOUDY    77  68  73 SW3       29.92F
FRONT ROYAL*   CLOUDY    70  70 100 S3        29.92R
LURAY*         TSTM      75  68  78 E3        29.93S
NEW MARKET*    FAIR      73  70  89 N5        29.93R
STAUNTON*      MOCLDY    82  66  58 CALM      29.96S
WAYNESBORO*    FAIR      79  67  66 CALM      29.96S

$$

WVZ021-048>050-054>055-040100-
EASTERN WEST VIRGINIA PANHANDLE

CITY           SKY/WX    TMP DP  RH WIND       PRES   REMARKS
MARTINSBURG    CLOUDY    83  66  56 NW3       29.90R
PETERSBURG*    PTCLDY    75  68  78 CALM      29.96R

$$

VAZ036>039-050-040100-
CENTRAL FOOTHILLS

CITY           SKY/WX    TMP DP  RH WIND       PRES   REMARKS
CHARLOTTESVILL PTCLDY    80  70  71 S3        29.90R
CULPEPER*      MOCLDY    77  72  83 NW3       29.90R
ORANGE*        MOCLDY    79  70  73 CALM      29.91R
GORDONSVILLE*  FAIR      78  73  84 CALM      29.89R
WARRENTON*     FAIR      79  74  83 NW6       29.88R

$$

VAZ055>057-040100-
NORTH AND CENTRAL PIEDMONT

CITY           SKY/WX    TMP DP  RH WIND       PRES   REMARKS
FREDERICKSBRG* PTCLDY    81  71  70 CALM      29.86R
STAFFORD*      PTCLDY    77  71  81 NW5       29.91S

$$

NCZ024-NYZ072-PAZ021-071-VAZ022-071-040100-
OTHER REGIONAL OBSERVATIONS

CITY           SKY/WX    TMP DP  RH WIND       PRES   REMARKS
NEW YORK CITY  PTCLDY    85  63  47 S5        29.87R
PHILADELPHIA   PTCLDY    90  63  40 N5        29.84R HX  91
PITTSBURGH     CLOUDY    75  64  68 W9        29.97R
ROANOKE        MOCLDY    81  66  60 NW3       29.96R
RICHMOND       PTCLDY    87  69  54 W3        29.87R HX  91
RALEIGH        CLOUDY    79  71  76 CALM      29.90R

$$

ANZ530>537-040100-
MARINE OBSERVATIONS

STATION/POSITION TIME  TEMP    WIND        PRES
                       AIR SEA DIR/SP/G
                 (UTC) (F)     (DEG/KT/KT) (MB)
THOMAS PT LIGHT  2300   83 81  230/  6/  6 1011.2R
BALT KEY BRIDGE  2300   86     150/  4/  5 1010.5R
COVE POINT       2300   83      CALM  /  1 1011.4R
LEWISETTA        2300   86 82  210/  3/  4 1010.4R
SOLOMONS ISLAND  2300      83                N/A
PINEY POINT      2329          160/  2/  3   N/A

$$



USA.gov is the U.S. government's official web portal to all federal, state and local government web resources and services.